Weather History for Green Bay, WI

Change the Weather History Date:

Sunday, August 17, 2014

  Actual Average Record
Temperature  
Mean Temperature 61 °F 68 °F  
Max Temperature 67 °F 78 °F 96 °F (1947)
Min Temperature 54 °F 57 °F 42 °F (1954)
Degree Days  
Heating Degree Days 4 1  
Month to date heating degree days 12 17  
Since 1 June heating degree days 58 132  
Since 1 July heating degree days 27 40  
Cooling Degree Days 0 4  
Month to date cooling degree days 56 69  
Year to date cooling degree days 277 320  
Since 1 June cooling degree days 261 302  
Growing Degree Days 10 (Base 50)    
Moisture  
Dew Point 56 °F    
Average Humidity 84    
Maximum Humidity 100    
Minimum Humidity 68    
Precipitation  
Precipitation 0.00 in 0.11 in 2.61 in (1951)
Month to date precipitation 1.67 1.93  
Year to date precipitation 17.59 18.96  
Snow  
Snow 0.00 in 0.00 in 0.00 in ()
Month to date snowfall 0.0 0.0  
Since 1 June snowfall 0.0 0.0  
Since 1 July snowfall 0.0 0.0  
Snow Depth 0.00 in    
Sea Level Pressure  
Sea Level Pressure 30.03 in    
Wind  
Wind Speed 8 mph (NE)    
Max Wind Speed 15 mph    
Max Gust Speed 20 mph    
Visibility 10 miles    
Events      
T = Trace of Precipitation, MM = Missing Value Source: NWS Daily Summary

Daily Weather History Graph

Daily Weather History Graph

Search for Another Location

Airport:

Trip Planner

Search our weather history database for the weather conditions in past years. The results will help you decide how hot, cold, wet, or windy it might be!

Date:

Astronomy

Aug. 17, 2014 Rise Set
Actual Time 5:57 AM CDT 7:54 PM CDT
Civil Twilight 5:26 AM CDT 8:25 PM CDT
Nautical Twilight 4:47 AM CDT 9:04 PM CDT
Astronomical Twilight 4:05 AM CDT 9:46 PM CDT
Moon No Moon Rise 2:02 PM CDT (8/17)
Length of Visible Light 14h 59m
Length of Day
13h 56m
Waning Gibbous, 48% of the Moon is Illuminated
Aug 17
Waning Gibbous
Aug 25
New
Sep 2
First Quarter
Sep 8
Full
Sep 15
Last Quarter

Hourly Weather History & Observations

Time (CDT) Temp. Dew Point Humidity Pressure Visibility Wind Dir Wind Speed Gust Speed Precip Events Conditions
12:10 AM 63.0 °F 57.9 °F 84% 29.99 in 10.0 mi ENE 9.2 mph - N/A   Overcast
12:53 AM 62.1 °F 57.9 °F 86% 30.00 in 10.0 mi East 12.7 mph - N/A   Overcast
1:13 AM 62.1 °F 57.0 °F 84% 30.00 in 10.0 mi East 5.8 mph - N/A   Overcast
1:32 AM 62.1 °F 57.0 °F 84% 30.00 in 10.0 mi East 6.9 mph - N/A   Overcast
1:53 AM 60.8 °F 57.2 °F 88% 30.00 in 10.0 mi East 8.1 mph - N/A   Overcast
2:53 AM 61.0 °F 55.9 °F 83% 30.01 in 10.0 mi East 6.9 mph - N/A   Overcast
3:36 AM 60.1 °F 55.9 °F 86% 30.02 in 10.0 mi ENE 4.6 mph - N/A   Overcast
3:53 AM 60.1 °F 55.0 °F 83% 30.01 in 10.0 mi North 13.8 mph - N/A   Overcast
4:45 AM 55.9 °F 52.0 °F 87% 30.02 in 10.0 mi NNE 11.5 mph - N/A   Mostly Cloudy
4:53 AM 55.9 °F 52.0 °F 87% 30.02 in 10.0 mi NNE 11.5 mph - N/A   Partly Cloudy
5:53 AM 55.0 °F 51.1 °F 86% 30.04 in 10.0 mi North 9.2 mph - N/A   Partly Cloudy
6:46 AM 55.9 °F 51.1 °F 84% 30.05 in 10.0 mi North 8.1 mph - N/A   Partly Cloudy
6:53 AM 55.9 °F 51.1 °F 84% 30.06 in 10.0 mi North 8.1 mph - N/A   Clear
7:53 AM 59.0 °F 52.0 °F 78% 30.06 in 10.0 mi NNE 11.5 mph - N/A   Clear
8:53 AM 61.0 °F 53.1 °F 75% 30.06 in 10.0 mi NNE 10.4 mph - N/A   Partly Cloudy
9:53 AM 62.1 °F 55.0 °F 78% 30.07 in 10.0 mi ENE 5.8 mph - N/A   Overcast
10:14 AM 62.1 °F 55.9 °F 80% 30.06 in 10.0 mi ENE 6.9 mph - N/A   Overcast
10:21 AM 62.1 °F 55.9 °F 80% 30.07 in 10.0 mi NE 6.9 mph - N/A   Overcast
10:53 AM 61.0 °F 55.9 °F 83% 30.08 in 10.0 mi NE 9.2 mph - N/A   Overcast
11:53 AM 62.1 °F 57.0 °F 84% 30.07 in 10.0 mi North 10.4 mph - N/A   Overcast
12:53 PM 64.0 °F 57.9 °F 80% 30.07 in 10.0 mi NE 9.2 mph - N/A   Overcast
1:08 PM 63.0 °F 57.9 °F 84% 30.06 in 10.0 mi ENE 11.5 mph - N/A   Overcast
1:19 PM 64.0 °F 57.0 °F 78% 30.06 in 10.0 mi ENE 12.7 mph - N/A   Overcast
1:36 PM 64.0 °F 57.0 °F 78% 30.05 in 10.0 mi ENE 13.8 mph - N/A   Overcast
1:49 PM 64.4 °F 57.2 °F 77% 30.06 in 10.0 mi NE 11.5 mph - N/A   Overcast
1:53 PM 64.0 °F 57.0 °F 78% 30.06 in 10.0 mi NE 10.4 mph - N/A   Overcast
2:07 PM 64.4 °F 57.2 °F 77% 30.05 in 10.0 mi East 9.2 mph - N/A   Overcast
2:53 PM 66.0 °F 57.9 °F 75% 30.05 in 10.0 mi ENE 10.4 mph - N/A   Overcast
3:53 PM 66.0 °F 57.0 °F 73% 30.03 in 10.0 mi ENE 6.9 mph - N/A   Overcast
4:53 PM 66.0 °F 57.0 °F 73% 30.03 in 10.0 mi NE 10.4 mph - N/A   Overcast
5:53 PM 66.0 °F 55.9 °F 70% 30.02 in 10.0 mi NE 5.8 mph - N/A   Overcast
6:53 PM 64.9 °F 55.9 °F 73% 30.02 in 10.0 mi NNW 3.5 mph - N/A   Overcast
7:53 PM 64.0 °F 57.9 °F 80% 30.01 in 10.0 mi North 4.6 mph - N/A   Overcast
8:53 PM 60.1 °F 55.9 °F 86% 30.01 in 10.0 mi NNE 3.5 mph - N/A   Mostly Cloudy
9:06 PM 60.1 °F 55.9 °F 86% 30.01 in 10.0 mi North 3.5 mph - N/A   Scattered Clouds
9:53 PM 57.0 °F 55.0 °F 93% 30.01 in 10.0 mi NE 4.6 mph - N/A   Partly Cloudy
10:53 PM 55.9 °F 55.0 °F 97% 29.99 in 10.0 mi SE 4.6 mph - N/A   Clear
11:18 PM 55.9 °F 55.0 °F 97% 29.99 in 10.0 mi ESE 5.8 mph - N/A   Partly Cloudy
11:53 PM 57.0 °F 55.0 °F 93% 29.98 in 10.0 mi ESE 5.8 mph - N/A   Clear